Regional Weather Roundup
Issued by NWS

Home | Current Version | Previous Version | Graphics & Text | Print | Product List | Glossary On
Versions: 1 2 3 4 5 6 7 8 9 10 11 12 13 14 15 16 17 18 19 20 21 22 23 24 25 26 27 28 29 30 31 32 33 34 35 36 37 38 39 40 41 42 43 44 45 46 47 48 49 50
000
ASUS45 KCYS 211710
RWRWY

WYOMING REGIONAL WEATHER ROUNDUP
NATIONAL WEATHER SERVICE CHEYENNE WY
1100 AM MDT SAT OCT 21 2017

NOTE:  "FAIR" INDICATES FEW OR NO CLOUDS BELOW 12,000 FEET
WITH NO SIGNIFICANT WEATHER AND/OR OBSTRUCTIONS TO VISIBILITY.

WYZ001-211800-
YELLOWSTONE NATIONAL PARK

CITY           SKY/WX    TMP DP  RH WIND       PRES   REMARKS
LK YELLOWSTONE   N/A     25  20  81 VRB6      30.05R WCI  18
W YELLOWSTONE  NOT AVBL

$$
WYZ002>013-054>058-071-098>099-211800-
NORTHERN WYOMING

CITY           SKY/WX    TMP DP  RH WIND       PRES   REMARKS
JACKSON        CLOUDY    34  20  56 SW16      30.11R WCI  24
CODY           FAIR      45  17  32 W21G31    29.97R
GREYBULL       FAIR      48  16  27 CALM      29.95R
WORLAND        FAIR      48  17  29 VRB6      29.96R
SHERIDAN       FAIR      52  15  23 NW28G35   29.90R
BUFFALO        CLOUDY    48   9  20 N20       29.91R
GILLETTE       FAIR      49  14  24 NW31G45   29.88R
HULETT         FAIR      46  19  34 W18G29    29.87R
NEWCASTLE      FAIR      45  18  33 NW26G37   29.90R

$$
WYZ014>020-022>026-101>103-211800-
CENTRAL WYOMING

CITY           SKY/WX    TMP DP  RH WIND       PRES   REMARKS
BIG PINEY      PTSUNNY   34  16  47 NW9       30.12R WCI  27
PINEDALE       FAIR      34  16  47 NW14G22   30.11R WCI  24
DUBOIS         FAIR      32  19  59 W24G33    30.00S WCI  19
LANDER         FAIR      44  14  29 NE6G16    29.99R
RIVERTON       FAIR      46  14  27 W17G29    29.98R
CASPER         FAIR      45  13  27 MISG      29.98R
DOUGLAS        FAIR      47  15  27 W26G33    29.96R

$$
WYZ021-027>030-104>119-211800-
SOUTHERN WYOMING

CITY           SKY/WX    TMP DP  RH WIND       PRES   REMARKS
EVANSTON       CLOUDY    33  21  61 W16G24    30.18R WCI  23
KEMMERER       FLURRIES  32  19  59 W18G24    30.14R WCI  20
FORT BRIDGER   PTSUNNY   38  22  51 W20G25    30.19R WCI  28
ROCK SPRINGS   FAIR      36  19  50 W20G30    30.12S WCI  25
DIXON          PTSUNNY   33  24  71 S13       30.16S WCI  23
RAWLINS        FAIR      37  18  46 W24G31    30.06R WCI  26
SARATOGA       FAIR      32  23  69 W21G32    30.09R WCI  20
LARAMIE        FAIR      35  17  47 W25G35    30.03R WCI  23
CHEYENNE       FAIR      42  17  36 W35G44    29.98R
TORRINGTON     FAIR      51  17  26 NW15G24   29.94R
PINE BLUFFS    FAIR      46  16  29 NW33      29.97S

$$



USA.gov is the U.S. government's official web portal to all federal, state and local government web resources and services.